Location: Newark
(40.3500°N, 15.2333°E)
Time: 15:22:52
(UTC+00:00)

Altair - Pass Details

Date: 25 January 2020
Orbit: 1502 x 1682 km, 47.2° (Epoch: 25 February)

Event Time Altitude Azimuth Distance (km) Brightness Sun altitude
Rises 16:09:13 0° 290° (WNW) 4,906 10.9 -1.0°
Reaches altitude 10° 16:14:07 10° 270° (W) 3,887 11.0 -1.9°
Maximum altitude 16:19:19 16° 238° (WSW) 3,407 11.0 -2.8°
Drops below altitude 10° 16:24:27 10° 205° (SSW) 3,804 10.4 -3.7°
Sets 16:29:12 0° 185° (S) 4,747 10.4 -4.5°
